Theta_e
305 305 305 305 306 305 305 305 304 304 304 305 306 306 307 308 309 310 310 310 311 312 312 312 313 313 314 314 314 315 315 316 317 317 318 319 318 319 319 318 319 319 319 323 324 324 323 324 325 326 328 328 327 328 329 329 330 330 328 328 330 330 326 322 321 326 329 330 331 331 330 329 327 326 327 326 324 323 322 323 324 320 318 320 320 319 323
304 304 304 305 305 305 305 305 304 303 304 305 305 306 307 308 308 308 307 307 309 310 310 311 311 312 313 313 313 314 314 314 315 316 316 318 318 319 319 319 319 319 319 320 322 322 321 322 325 326 326 327 328 329 328 328 329 328 329 329 328 326 326 322 320 322 324 325 326 326 328 328 326 326 328 326 325 326 325 325 326 322 320 320 320 319 323
304 304 304 304 304 304 304 304 303 303 303 304 305 306 307 307 307 308 308 308 309 309 310 310 310 311 312 313 313 314 315 315 316 316 316 317 317 317 319 319 319 319 319 319 319 320 319 320 323 325 325 327 329 328 327 330 328 329 338 339 329 326 327 326 320 318 320 320 320 321 323 325 325 327 327 327 327 325 322 321 320 320 323 325 321 320 327
304 304 304 304 304 304 304 303 303 303 303 304 304 305 307 307 307 308 309 309 309 310 310 311 312 313 313 313 314 313 314 315 315 316 316 317 318 317 319 320 319 319 319 318 319 319 319 319 321 322 324 326 327 328 330 328 330 338 344 343 333 328 330 330 326 323 321 323 325 327 327 324 322 324 326 326 327 327 325 319 316 319 324 324 326 328 330
304 304 304 304 304 304 304 304 304 304 303 303 304 305 306 307 306 308 308 308 309 309 311 312 313 313 312 311 312 312 313 313 314 314 314 316 317 317 317 318 320 319 318 318 317 317 318 319 320 321 322 323 326 329 328 328 339 344 339 336 335 330 327 329 331 328 326 328 331 330 329 325 323 324 324 325 327 326 324 319 319 324 321 318 330 341 333
303 304 303 304 304 304 304 304 304 304 303 303 304 305 306 306 307 307 307 307 307 308 309 310 311 310 310 310 310 310 311 312 312 313 313 314 315 315 316 316 317 319 319 320 321 321 322 320 318 319 320 321 324 327 327 328 340 342 333 330 335 331 326 327 328 326 327 330 330 330 329 328 326 326 325 325 326 325 323 322 324 328 322 319 333 346 337
303 304 304 304 304 304 304 304 303 304 303 303 304 304 306 306 306 307 307 307 308 308 308 309 308 308 309 310 309 309 310 311 311 312 312 312 312 313 314 314 314 315 316 317 320 321 321 322 322 322 323 322 323 323 325 328 332 333 328 329 333 330 328 330 328 326 327 329 330 330 331 328 327 327 327 326 327 325 324 325 326 328 327 326 334 342 340
303 303 303 304 304 304 304 304 304 304 303 303 304 304 305 306 306 307 307 307 308 308 308 308 308 308 309 309 309 308 308 309 309 310 310 311 311 311 311 312 312 313 314 316 318 318 316 317 318 319 321 322 324 324 325 325 327 327 326 328 331 328 328 333 330 325 325 328 329 328 329 328 327 327 328 327 327 326 324 326 326 326 328 328 330 334 335
303 303 303 303 303 304 304 304 304 304 303 304 304 304 305 306 306 307 307 306 307 307 307 308 307 307 308 308 308 308 308 308 308 309 310 310 310 310 311 312 311 312 313 315 316 315 315 315 316 317 318 319 321 323 325 326 325 325 326 328 329 329 328 331 330 323 322 327 329 327 328 329 326 325 328 327 325 325 325 326 327 325 327 328 326 325 329
303 303 303 303 303 304 304 304 304 304 304 304 304 304 305 306 306 307 307 306 306 306 307 307 307 307 307 308 308 308 308 308 308 309 310 310 311 311 312 312 312 312 312 313 314 314 314 315 315 317 318 320 321 321 324 327 326 325 326 325 328 329 328 328 327 322 322 326 328 328 327 324 322 324 328 329 328 328 326 327 328 327 327 325 322 323 331
303 303 303 303 303 304 304 304 304 304 304 304 304 304 305 305 306 307 307 305 306 306 306 306 306 307 307 308 308 308 308 308 309 309 309 309 310 311 311 312 312 312 312 312 313 313 314 315 316 318 320 320 322 323 324 326 327 328 328 327 328 329 328 328 328 323 321 325 327 327 324 320 322 328 330 330 330 329 328 327 328 329 328 327 326 329 334
303 302 303 303 303 303 304 303 304 304 304 304 304 304 305 305 305 306 306 305 306 306 306 306 307 307 307 307 307 307 307 308 309 309 309 309 310 310 311 311 312 313 312 312 312 313 314 316 316 318 321 321 322 323 323 325 327 328 329 328 330 331 329 329 329 324 322 324 327 323 320 323 328 332 332 332 330 329 330 329 330 330 331 330 330 331 333
302 302 302 303 303 303 303 303 303 304 304 303 304 304 304 304 304 305 306 305 305 306 305 306 307 307 308 307 307 307 308 308 308 309 309 309 309 310 310 311 312 313 312 311 312 313 315 316 317 319 321 321 321 322 323 324 326 326 326 328 330 332 331 329 326 324 323 323 323 321 323 328 332 334 333 333 331 332 329 329 330 330 330 331 335 336 336
302 302 302 303 303 303 303 303 303 303 303 303 304 304 304 304 304 305 305 304 305 306 306 306 306 306 307 307 306 307 308 308 308 309 309 309 310 310 310 311 311 312 311 311 313 314 315 316 318 320 321 322 322 322 323 324 325 326 326 327 328 330 331 330 325 324 325 322 321 324 327 328 331 333 334 333 334 334 332 329 331 334 332 334 337 338 337
302 303 303 303 303 303 303 303 303 303 303 303 303 304 304 304 304 304 304 304 304 306 306 306 306 306 307 307 307 307 307 308 308 309 309 310 311 310 310 310 310 311 311 311 313 314 315 316 319 321 323 323 322 321 322 323 324 325 326 327 327 328 331 332 328 326 325 323 322 325 325 325 329 333 335 334 334 335 337 334 334 337 334 334 336 337 339
303 303 303 303 303 303 303 303 303 303 303 303 303 303 303 303 304 304 304 304 304 305 305 306 306 307 307 306 307 307 308 308 308 308 309 311 311 311 310 310 311 311 311 312 313 313 314 317 320 322 323 324 322 321 321 321 323 324 325 326 326 326 329 332 329 327 326 324 323 324 324 326 333 336 336 335 334 336 336 331 330 336 339 339 340 340 341
303 303 303 303 303 303 303 303 303 303 303 303 303 303 303 303 304 305 304 304 305 305 305 305 305 306 306 306 307 307 308 308 308 307 308 310 311 311 311 311 311 311 311 312 313 313 314 316 319 321 322 323 322 322 321 320 320 323 324 325 325 325 327 328 327 326 328 326 325 325 326 332 339 337 334 335 336 336 334 326 328 340 345 342 343 343 344
303 303 303 303 303 303 303 303 303 303 303 303 303 303 303 304 304 304 304 304 305 305 305 305 306 306 306 306 307 307 306 307 308 308 308 309 310 311 311 312 312 312 312 312 312 312 313 315 318 320 322 321 321 322 323 321 320 321 322 324 324 323 324 325 324 325 327 328 326 326 328 336 341 336 335 337 336 334 329 326 334 344 345 342 344 344 344
303 303 303 303 303 303 303 303 303 303 303 303 303 303 304 304 304 304 304 304 305 305 305 305 306 306 306 306 307 307 306 306 307 308 307 308 310 310 310 310 312 312 312 312 312 312 313 314 317 319 321 321 320 321 322 322 321 322 322 323 322 321 322 322 324 324 325 327 328 326 328 335 339 337 336 336 333 330 331 336 343 346 342 342 345 347 348
303 303 303 303 303 303 303 303 303 303 303 303 303 303 303 304 304 304 304 304 304 305 305 305 305 306 306 306 307 307 307 306 307 308 307 308 309 309 309 310 312 312 312 311 311 311 312 314 316 318 320 320 321 322 323 323 323 323 324 325 323 323 320 319 321 325 325 324 326 325 327 333 337 337 337 335 334 335 339 343 344 341 342 344 347 349 350
303 303 303 303 303 303 303 303 303 303 303 303 303 303 303 303 304 304 304 304 304 305 306 306 306 306 306 306 306 306 307 306 307 308 308 308 308 307 308 311 311 311 312 313 312 313 315 316 317 319 320 321 323 325 326 327 326 324 325 327 329 328 324 320 322 325 324 321 324 327 331 334 336 338 338 336 338 341 342 342 343 344 347 348 349 349 347
302 303 302 302 303 303 303 303 303 303 303 303 303 303 303 303 304 304 304 304 304 305 305 305 305 306 306 306 306 306 306 306 307 307 308 308 308 307 308 309 310 311 312 313 314 316 317 316 317 320 321 322 323 325 326 327 327 326 326 330 331 332 331 330 331 331 328 328 332 335 337 337 336 338 339 337 338 340 339 341 346 348 348 346 347 347 344
302 303 303 302 303 303 303 303 303 303 303 303 302 303 303 303 304 304 304 304 304 304 305 305 305 306 306 306 306 306 306 306 307 307 307 308 308 308 308 308 309 309 311 312 313 316 316 316 317 319 321 322 324 325 326 327 326 326 327 330 331 331 333 332 334 337 338 340 340 337 336 337 335 336 337 337 339 340 341 343 344 345 344 343 342 343 343
302 302 302 302 302 302 302 303 303 303 303 303 302 303 303 303 303 303 304 304 304 304 305 306 306 306 306 306 306 306 307 307 307 307 308 307 307 307 307 308 309 310 311 312 314 314 315 316 317 318 319 321 323 323 325 327 326 326 327 328 330 332 332 332 334 338 340 342 342 338 337 339 337 335 335 335 337 339 342 342 341 340 339 338 337 338 339
302 302 302 302 302 302 302 302 302 302 302 302 302 303 303 303 304 303 304 304 305 305 305 306 306 306 306 306 306 307 307 307 308 308 308 308 307 307 307 308 309 310 311 312 313 313 314 315 316 317 318 320 322 323 325 325 326 325 324 326 330 332 333 333 334 336 338 340 340 338 338 338 337 336 336 336 336 337 337 338 337 336 336 336 335 335 335
302 302 302 302 302 302 302 302 302 302 302 302 302 303 303 304 304 303 303 303 304 305 305 306 306 306 306 306 307 307 307 307 307 308 308 308 308 307 307 307 308 308 309 310 311 314 315 314 315 316 317 318 320 322 322 323 324 324 325 326 328 330 332 333 334 335 339 340 338 337 337 337 336 335 336 335 335 335 334 334 334 334 333 333 333 333 333
302 302 302 302 302 303 302 302 302 302 302 302 302 303 304 304 304 304 303 303 304 305 305 306 306 306 307 306 306 307 307 307 307 307 308 308 308 308 307 307 307 308 309 309 311 313 315 315 315 315 316 317 318 319 321 322 324 325 327 328 328 329 332 334 334 336 339 340 338 337 338 336 334 334 333 332 332 332 332 332 332 332 332 331 330 330 330
302 302 302 302 303 303 302 302 302 302 302 302 302 303 303 304 304 304 304 304 304 305 305 306 306 307 307 307 307 307 307 307 307 307 307 307 308 308 308 308 308 308 309 310 312 313 315 315 315 315 317 318 318 318 321 324 325 327 328 327 327 328 330 332 333 335 336 336 336 336 336 334 332 331 330 329 329 329 329 329 329 329 329 329 329 328 327
302 302 302 302 302 302 302 302 302 302 302 302 303 304 304 304 305 305 304 304 304 304 305 306 306 307 307 307 307 308 308 308 308 308 307 307 308 308 308 308 309 310 310 311 312 313 314 315 315 315 316 317 317 318 322 325 327 328 328 327 326 327 328 330 331 332 334 335 335 334 334 332 331 330 329 328 327 327 327 328 327 327 327 327 327 325 323
301 302 302 302 302 302 302 302 302 302 302 302 303 304 304 305 305 305 305 305 304 304 305 306 306 306 307 308 308 308 309 309 309 309 308 307 308 308 309 309 310 310 311 312 313 314 315 315 315 315 316 316 317 319 323 326 327 328 326 325 326 327 327 327 329 331 333 334 333 332 332 331 330 330 329 327 326 325 325 325 325 326 327 328 328 327 325
302 301 301 301 301 302 302 302 301 301 302 303 304 305 305 306 306 305 304 304 304 305 306 306 306 307 308 309 310 310 311 310 310 310 310 308 308 308 309 310 311 311 312 313 314 314 315 315 315 316 317 317 317 319 323 325 326 326 326 326 326 326 326 326 329 331 332 331 330 330 330 330 329 329 328 327 327 325 323 323 323 323 326 328 329 328 327
302 302 301 301 302 302 302 302 302 302 302 303 304 305 305 305 305 304 303 303 304 305 306 306 306 307 308 310 310 311 311 311 311 311 310 309 309 309 309 310 311 312 312 314 315 315 315 315 315 316 317 318 318 320 323 324 325 325 325 325 325 324 324 326 329 330 329 329 329 330 329 329 329 328 327 326 326 324 323 323 322 322 323 326 327 327 327
303 302 302 302 303 302 302 303 302 302 302 302 303 304 305 304 303 303 302 303 304 305 305 306 306 307 308 310 311 311 311 312 312 312 312 311 310 310 310 311 312 313 313 314 315 315 315 315 316 317 317 318 318 320 323 324 325 325 324 324 323 322 323 325 328 329 328 329 329 328 328 327 327 326 325 324 324 323 323 322 322 321 320 320 321 324 327
303 302 303 303 303 303 303 303 303 303 304 304 305 306 306 306 305 303 303 304 305 305 306 306 307 308 309 310 311 312 312 313 313 312 312 312 312 312 313 312 312 313 314 314 315 315 316 316 316 317 318 318 319 321 323 324 323 323 323 323 322 321 322 323 325 326 326 327 327 326 326 326 326 325 324 324 324 324 323 321 320 321 320 318 318 321 324
303 303 303 304 304 305 305 304 304 305 306 307 307 307 306 306 305 304 304 304 305 307 307 307 307 309 309 310 311 312 312 313 313 313 313 314 314 314 314 314 314 314 314 314 315 315 315 316 316 317 318 319 320 322 323 322 322 322 322 322 321 321 322 323 323 324 325 325 325 326 326 325 325 324 324 323 324 324 323 321 319 318 319 318 317 318 321
303 303 304 305 306 306 307 307 306 307 307 307 307 307 306 305 305 305 306 306 306 307 308 308 309 309 309 310 310 311 312 313 314 314 314 315 315 314 314 314 315 314 314 315 316 316 315 315 316 318 319 320 321 322 322 321 321 321 321 321 320 320 320 321 320 321 323 324 325 325 325 325 325 325 325 325 325 325 325 324 322 321 319 319 319 318 319
304 305 306 307 308 308 308 308 308 307 307 307 306 306 305 305 306 306 307 307 307 307 307 308 308 309 310 310 311 311 312 314 315 314 314 315 315 315 314 315 315 316 315 316 315 314 314 315 315 317 320 320 320 321 321 320 320 321 320 320 320 319 319 320 320 320 321 322 322 323 323 324 325 325 325 325 325 326 326 325 324 323 323 322 322 321 320
306 307 307 308 309 309 309 309 308 307 306 306 306 306 307 308 308 308 308 308 308 308 308 308 309 309 310 311 312 311 312 314 315 314 314 314 314 314 314 315 317 316 315 315 314 314 315 317 318 318 319 320 320 319 319 319 319 319 320 320 320 320 320 321 322 322 323 323 322 323 323 324 324 325 324 325 325 325 325 325 325 324 324 324 324 323 322
308 308 308 309 309 309 309 309 309 308 307 307 308 309 309 309 309 310 310 310 309 309 309 309 309 310 311 313 313 313 313 314 315 316 315 314 314 315 315 317 318 316 315 316 317 316 316 318 319 318 319 320 320 320 320 320 320 319 319 320 321 321 321 322 322 322 323 323 323 323 323 323 324 324 324 324 324 324 324 325 324 324 324 324 324 323 323
309 309 309 309 309 308 309 309 309 309 310 311 311 310 310 310 310 310 311 311 310 311 311 311 310 311 312 313 314 314 314 314 315 316 316 315 315 315 316 317 318 317 317 318 319 318 318 319 319 317 317 319 320 320 320 321 321 320 319 319 319 320 321 321 321 321 322 322 322 322 321 322 323 323 324 324 324 324 324 324 325 325 324 324 324 324 325
309 308 309 309 309 309 309 310 310 311 312 312 312 311 311 311 310 311 312 313 312 312 312 312 313 313 314 314 315 316 315 315 315 316 317 317 317 317 317 317 319 320 320 320 320 321 321 321 319 318 318 320 320 320 321 321 321 320 318 317 318 319 321 321 321 321 321 322 322 322 322 322 322 323 324 324 325 325 325 325 325 325 325 325 325 325 326
309 309 309 309 310 310 311 311 311 312 312 312 311 310 310 311 312 312 313 314 313 313 313 313 313 315 315 315 316 316 316 316 317 318 318 319 318 318 319 319 321 321 321 321 322 323 322 320 318 318 320 321 320 321 321 320 319 318 317 317 318 320 321 321 320 320 320 321 322 322 322 322 323 323 324 324 324 325 325 325 325 325 325 326 326 326 327
310 310 310 310 311 312 312 311 311 311 310 310 310 311 312 312 312 313 314 313 313 314 313 313 313 315 316 316 317 317 316 316 317 318 319 319 318 319 320 320 320 321 321 322 323 323 322 319 318 319 321 321 320 321 321 321 319 318 318 318 319 320 321 321 321 321 321 321 321 322 322 322 323 323 324 324 325 325 325 325 325 325 326 326 326 326 327
312 312 311 311 311 311 310 310 310 311 311 310 311 313 313 313 313 314 314 313 314 315 315 314 315 316 317 316 316 317 318 317 317 318 319 319 319 321 321 321 321 322 322 321 322 321 319 319 320 320 321 321 320 320 320 321 321 321 321 320 321 321 321 322 322 322 322 322 322 322 322 322 323 323 323 324 325 325 325 324 325 325 325 326 326 326 326
312 311 310 310 309 310 311 311 310 311 312 312 313 313 313 313 313 314 315 314 314 316 316 316 316 317 317 317 316 317 319 319 318 318 320 321 320 320 320 320 322 323 322 321 320 319 318 318 320 321 321 321 321 321 320 320 320 321 321 321 321 322 322 322 323 323 322 322 322 322 322 323 323 323 323 323 323 324 324 324 324 325 325 325 325 325 325
312 311 310 310 310 310 311 312 311 312 313 314 314 314 313 313 314 315 315 315 315 316 316 317 317 318 317 317 317 317 319 320 319 319 321 321 320 319 320 321 321 322 322 320 319 319 318 319 321 321 321 321 321 321 321 320 321 321 321 321 321 322 321 322 322 323 323 323 322 322 322 322 323 323 323 323 323 323 323 324 324 324 324 324 325 324 324
312 311 312 311 310 311 312 313 312 312 314 315 315 314 313 314 314 315 315 315 315 316 316 317 318 318 317 317 318 318 319 319 319 319 320 320 319 319 320 321 321 321 321 320 319 319 320 321 322 322 321 321 321 321 321 321 321 322 322 321 322 322 321 321 322 323 323 323 323 323 322 322 323 323 323 323 323 323 323 323 323 323 323 324 324 324 324
311 311 311 311 311 312 313 314 314 314 314 315 314 313 313 314 314 315 315 315 316 317 317 318 318 318 318 318 318 319 319 319 319 319 319 320 319 319 320 321 321 321 321 320 319 320 321 322 322 321 321 321 321 321 321 321 321 322 322 321 321 321 321 321 321 322 322 323 323 323 323 322 322 322 322 322 322 322 322 322 322 322 322 323 322 323 323
311 311 311 311 312 313 314 314 314 314 314 314 314 314 315 316 316 316 316 316 317 318 319 318 318 318 318 318 318 318 319 319 319 319 319 320 320 320 321 321 321 320 320 320 320 320 320 320 320 321 321 321 321 321 321 321 321 321 321 320 320 320 320 320 320 320 320 321 321 321 322 322 322 321 321 321 321 321 321 321 321 321 321 322 322 321 321
311 311 310 311 313 314 314 313 313 313 313 314 315 315 316 317 317 316 317 318 319 320 320 318 317 317 317 317 317 317 318 318 318 318 319 320 319 319 320 321 320 320 320 320 320 319 319 319 320 321 321 321 322 321 321 321 321 321 320 319 319 319 319 319 320 320 320 320 320 320 320 320 321 320 320 320 320 320 320 320 320 320 320 320 321 320 320
310 311 311 311 313 313 313 313 313 313 313 314 315 316 316 317 316 316 316 319 320 319 318 318 318 316 316 316 317 318 318 319 318 319 319 319 319 319 320 320 320 320 320 321 320 320 320 320 321 321 321 321 322 321 321 321 322 322 321 320 320 320 319 319 319 320 319 319 319 319 319 319 319 319 319 319 319 319 319 319 318 318 318 318 319 319 320
310 311 311 311 312 313 313 313 314 314 314 315 315 315 316 316 316 315 316 319 319 318 318 318 317 316 316 318 319 319 318 318 318 318 318 318 318 319 320 320 320 319 320 320 321 320 320 320 320 321 320 320 321 320 320 320 320 320 320 320 320 320 319 319 318 318 318 319 318 318 318 318 318 318 318 318 318 317 318 318 317 317 317 317 317 318 318
Wind_Speed
23 23 22 21 20 21 21 21 22 22 21 20 18 18 18 15 15 21 23 20 19 15 10 11 11 11 15 19 21 21 18 16 18 20 21 19 17 17 16 18 19 16 16 18 16 15 14 16 19 16 16 19 20 19 22 23 21 16 12 14 16 13 9 8 10 10 11 16 19 20 21 20 17 15 16 17 17 17 14 11 9 11 14 15 12 10 9
24 24 23 22 21 21 21 21 21 20 18 18 18 16 17 18 22 26 24 19 18 15 10 10 10 11 18 20 21 24 22 19 19 19 18 16 15 15 15 17 19 17 17 17 17 16 13 15 19 17 15 18 23 27 28 25 19 15 13 13 13 11 9 9 9 9 10 12 14 17 18 16 12 13 16 18 21 23 19 13 9 9 14 16 12 9 10
25 24 23 22 22 22 21 21 20 19 17 16 16 16 17 19 18 20 20 16 19 19 15 13 12 13 17 16 16 17 17 19 20 19 20 21 19 17 16 19 19 17 19 20 20 19 15 13 14 14 15 15 16 24 29 26 20 14 11 14 16 12 9 10 10 11 12 11 11 11 13 12 11 14 20 21 24 26 20 13 10 9 11 14 13 9 8
25 24 23 22 22 22 21 21 20 18 16 15 16 16 16 14 11 11 14 14 16 19 21 19 11 8 10 11 12 14 14 16 22 22 17 18 20 18 17 21 21 18 18 19 19 21 20 16 13 13 15 13 12 20 26 25 20 7 2 3 12 11 9 12 13 12 12 11 10 10 13 14 15 18 23 23 23 25 19 13 12 11 8 9 11 11 8
25 24 23 23 22 21 21 20 20 18 16 14 15 17 16 12 8 8 9 9 12 14 16 14 5 5 8 7 9 16 16 14 19 18 14 17 20 15 12 15 17 18 18 17 18 21 23 21 18 18 17 15 15 20 24 21 13 9 2 4 6 8 11 18 20 19 18 14 14 16 17 18 19 21 24 23 23 24 21 16 16 14 10 9 11 11 10
26 25 23 23 22 21 20 19 18 18 16 14 14 16 14 11 11 14 13 8 8 10 12 14 10 9 11 7 8 16 18 15 15 14 14 19 19 12 10 15 17 14 14 13 11 13 15 18 18 18 17 17 17 16 20 19 12 11 10 10 6 8 14 20 22 23 24 22 20 20 18 17 19 21 23 24 24 25 23 20 20 17 12 11 10 11 11
26 25 24 23 22 20 20 19 18 16 15 15 15 14 14 13 14 16 15 12 12 15 17 19 17 14 13 9 8 13 16 17 16 12 12 15 15 12 12 16 21 21 18 14 10 10 10 10 12 14 14 16 16 12 15 19 15 15 16 12 7 8 10 16 19 19 24 26 24 23 20 18 20 21 21 22 23 25 25 23 23 22 17 17 15 12 13
26 25 24 24 23 21 19 18 18 16 16 16 17 16 17 16 13 12 15 16 18 20 20 17 14 13 12 10 10 13 14 15 16 13 11 13 12 12 15 19 21 19 18 15 11 13 14 13 15 18 16 14 13 10 10 15 17 18 16 11 11 10 9 14 17 14 18 24 25 26 24 21 20 20 20 20 21 24 24 22 21 19 17 20 22 17 12
27 25 24 24 23 21 20 18 18 17 16 16 17 18 17 17 15 12 11 12 15 18 16 12 10 9 9 10 11 13 15 15 15 14 12 15 15 12 14 18 18 17 17 15 14 18 20 19 21 23 19 15 16 13 11 15 16 17 16 13 13 12 9 11 14 12 13 19 23 26 26 23 22 21 22 23 22 20 19 19 19 17 16 17 20 17 11
27 25 24 23 22 21 20 19 18 17 16 17 19 18 16 15 15 12 8 9 12 14 12 11 10 9 9 11 12 13 16 16 14 13 11 13 15 13 13 14 14 14 15 15 17 23 26 27 29 30 27 25 24 22 20 21 16 12 16 16 15 13 9 9 11 11 11 16 20 20 20 19 18 18 21 22 20 19 19 18 18 19 17 14 12 12 9
26 25 25 23 21 20 20 20 18 17 18 19 19 18 17 15 14 12 8 8 11 12 10 10 10 10 12 15 14 14 17 17 14 12 9 11 15 16 15 14 12 11 13 17 22 27 31 32 31 29 29 28 26 24 25 23 17 11 8 9 12 15 15 11 9 9 11 15 16 14 14 15 13 13 17 20 21 22 22 19 17 19 19 16 14 14 12
25 24 24 22 21 20 20 20 19 18 19 19 18 18 19 17 16 14 9 6 9 11 10 10 12 13 16 19 17 15 15 16 16 14 13 14 18 19 17 14 12 11 14 21 27 29 28 27 25 22 22 23 22 22 23 21 15 12 7 1 4 11 15 12 9 9 10 11 13 13 13 12 10 10 14 18 21 22 21 20 19 18 17 17 17 16 14
24 23 22 21 19 19 19 19 18 18 19 18 18 19 19 18 16 13 9 7 8 10 11 13 17 19 17 17 18 19 19 18 18 19 18 16 17 19 18 16 15 15 16 19 23 22 17 15 15 14 14 15 16 17 19 19 16 12 9 6 5 7 10 11 11 10 9 9 12 12 9 7 9 13 13 13 16 18 18 18 18 18 18 14 9 8 8
23 22 21 20 18 17 17 17 17 18 17 17 19 19 19 20 16 12 10 8 7 11 13 12 14 18 17 15 16 18 18 16 15 17 18 17 17 19 20 20 19 18 15 12 14 13 7 6 8 8 8 8 10 11 13 15 14 14 12 10 8 7 8 8 10 11 9 10 11 9 8 8 11 14 13 9 9 10 10 11 12 13 13 9 6 8 11
23 21 19 18 16 16 16 16 16 17 16 17 18 19 19 19 17 15 16 12 8 12 14 11 12 14 13 15 16 13 12 11 9 11 15 17 17 18 20 20 20 18 14 8 6 6 4 4 5 5 5 5 6 7 9 10 10 12 12 10 9 8 7 6 7 8 9 10 10 9 10 11 10 12 10 6 3 1 2 3 6 6 7 8 7 7 8
22 19 17 15 15 15 15 15 15 15 15 16 18 19 18 18 16 18 20 16 7 8 10 10 14 15 10 14 20 15 9 7 6 8 11 11 13 17 18 19 18 16 12 7 3 3 3 4 5 4 5 6 6 7 7 7 7 10 11 11 11 11 7 6 7 6 8 11 11 10 10 8 7 10 11 8 5 2 5 3 6 4 5 7 8 8 8
20 17 14 13 14 14 14 15 14 14 14 15 17 18 17 16 15 17 20 18 12 13 18 17 19 19 12 11 15 13 11 8 5 6 8 7 10 15 16 15 16 15 12 7 4 4 4 4 5 6 6 6 6 7 8 8 8 9 10 10 11 10 7 6 7 7 7 9 9 8 7 3 4 7 8 7 5 4 1 7 5 3 8 10 9 9 9
18 15 13 12 13 13 13 14 13 13 14 14 15 17 17 15 15 16 20 19 14 15 21 19 17 18 14 10 12 12 12 11 7 6 9 8 6 9 14 14 12 11 11 9 6 6 6 5 5 7 7 6 6 6 7 8 8 8 8 7 7 8 7 7 9 9 8 8 7 7 6 3 5 7 7 6 4 3 6 8 2 4 7 10 11 10 10
15 13 12 12 13 14 13 13 12 12 13 13 15 18 17 14 14 17 19 19 14 14 19 17 16 19 18 16 16 14 14 18 14 7 7 6 2 6 15 16 11 8 9 9 7 6 6 6 6 6 6 6 6 6 6 8 9 8 8 8 7 7 7 7 9 9 9 9 8 7 6 3 4 7 7 8 6 7 5 1 4 6 8 10 11 13 15
14 13 13 13 13 13 12 12 12 11 13 13 15 18 18 15 15 16 18 19 18 19 22 21 19 21 21 19 20 17 16 19 16 7 5 7 7 9 9 8 6 6 6 8 8 7 7 7 7 5 6 5 3 4 6 9 12 10 9 8 8 8 8 9 9 8 8 9 9 8 7 5 9 7 8 8 6 2 3 5 6 8 10 11 11 15 20
13 13 13 13 12 12 10 10 11 11 12 13 15 19 19 16 15 16 19 21 21 19 18 16 16 19 20 20 21 21 20 20 17 11 10 12 12 8 5 4 5 6 3 4 6 5 3 4 5 4 4 4 1 1 4 6 10 13 11 9 8 8 7 7 7 7 8 9 8 4 5 5 15 11 6 4 4 7 8 7 8 10 12 13 14 16 18
13 13 13 13 11 10 10 10 10 12 13 13 14 17 18 16 15 15 15 17 21 22 21 21 21 23 24 24 24 25 26 26 23 18 16 16 14 11 11 11 7 5 5 4 4 2 1 2 2 1 3 3 3 4 4 3 7 11 8 4 5 7 6 3 6 7 5 3 1 2 4 2 12 9 3 6 10 12 11 11 13 14 14 16 15 14 17
14 13 13 12 11 10 10 11 11 12 13 13 14 16 17 16 16 15 14 15 18 22 25 26 26 25 27 28 26 26 27 27 26 23 20 17 14 13 16 14 7 6 8 7 4 3 1 1 1 2 2 2 2 4 5 3 5 9 8 5 7 11 12 8 6 5 2 5 5 4 5 5 9 8 5 8 13 15 14 15 15 15 16 18 17 17 20
13 13 12 11 11 11 11 11 12 12 12 12 13 15 16 17 15 14 15 14 15 15 17 19 21 20 21 23 21 21 22 23 23 23 21 19 15 13 13 11 5 4 6 6 5 5 4 2 1 2 3 2 2 3 4 3 2 4 8 8 7 9 12 9 8 7 2 3 5 7 11 12 9 7 7 10 14 16 17 17 17 17 18 20 21 21 23
13 12 12 12 12 12 12 11 11 12 11 11 12 13 15 15 15 15 15 13 12 11 9 12 17 19 20 21 21 20 19 19 19 20 20 21 21 18 14 10 6 5 7 8 8 7 5 3 1 2 4 2 1 2 3 2 1 3 6 7 5 8 12 10 8 8 5 2 8 16 22 22 20 15 13 14 17 19 20 21 21 21 21 21 23 23 24
14 13 13 13 13 12 12 12 11 11 11 11 11 12 14 14 13 14 15 15 16 14 9 10 16 16 16 18 19 18 16 15 17 19 20 20 21 21 20 17 13 12 12 12 11 8 5 4 2 3 3 2 2 4 4 2 3 4 5 6 7 9 10 7 5 6 4 4 9 16 20 19 20 23 23 22 21 22 23 23 22 22 22 23 24 25 25
15 14 14 13 13 13 12 12 12 11 11 11 11 11 14 15 13 13 15 15 14 11 7 9 15 16 17 21 23 20 18 17 16 17 19 20 20 20 19 18 17 16 14 13 11 9 5 4 3 4 5 5 4 6 5 3 3 5 5 5 7 6 5 4 3 3 2 4 4 6 11 11 12 18 23 24 24 25 25 25 24 22 22 22 23 24 24
15 14 14 13 13 12 12 11 11 12 12 12 12 12 15 16 14 14 15 15 14 12 11 14 20 22 21 22 20 17 16 17 18 18 19 19 20 20 20 19 18 17 14 12 9 6 4 4 4 4 4 4 4 5 4 4 4 4 4 4 4 4 5 6 4 3 6 7 3 5 13 13 13 17 21 22 23 25 26 26 24 23 22 21 21 22 23
16 15 14 14 13 12 12 11 11 12 12 11 12 14 15 15 13 11 12 15 17 18 17 18 20 18 16 16 15 14 13 14 16 18 19 19 20 21 20 20 19 17 15 13 10 7 5 6 7 6 4 2 2 3 3 3 4 3 2 4 6 8 10 10 8 9 9 7 6 13 19 19 17 18 20 21 22 24 24 24 23 22 22 22 22 22 22
18 16 15 15 14 14 13 12 12 13 12 11 12 13 13 11 8 4 4 8 12 14 14 12 11 13 16 18 17 15 14 14 15 18 20 21 21 20 19 18 18 16 15 14 11 7 5 6 7 9 8 5 3 3 2 3 3 1 2 3 5 9 12 13 13 10 3 11 17 21 25 24 20 19 20 21 22 23 24 24 23 23 21 20 21 20 20
19 18 17 16 15 15 14 14 13 13 12 11 11 10 7 5 4 4 6 8 9 11 12 11 12 15 18 16 12 11 13 14 15 17 18 19 19 19 19 17 16 16 15 14 11 8 7 6 5 6 6 7 5 3 2 3 4 2 0 2 4 7 11 13 10 2 10 19 22 24 26 22 18 18 19 18 18 22 24 24 23 22 22 21 20 19 19
19 18 17 16 15 15 15 14 14 13 12 11 13 13 11 9 9 11 11 10 10 11 10 9 9 9 8 8 10 13 14 12 14 16 17 18 17 17 18 17 16 15 15 13 9 6 6 7 7 6 4 5 4 3 3 4 4 1 1 4 5 6 10 11 3 8 16 19 17 17 18 16 15 17 17 15 17 22 24 22 21 21 21 21 20 19 18
17 16 15 14 15 16 16 15 14 13 13 13 14 14 12 10 10 9 8 8 10 10 8 6 5 5 6 9 13 14 11 7 8 11 13 16 16 15 16 17 14 12 12 11 7 3 2 3 5 5 4 4 3 3 3 3 1 2 4 5 5 6 11 12 9 11 15 14 12 13 15 16 17 18 17 18 19 20 20 20 20 20 21 21 21 20 18
14 13 13 14 15 16 16 14 13 11 10 12 12 11 8 8 9 8 6 7 9 9 7 6 5 5 7 10 9 8 7 5 5 8 8 12 14 12 12 13 12 9 9 10 7 4 2 2 2 4 4 4 4 4 3 1 2 5 7 7 4 5 11 17 17 15 17 18 19 18 18 18 18 17 18 19 18 16 18 19 19 21 22 21 20 20 18
11 12 13 15 16 15 14 12 11 10 10 12 12 10 8 9 11 12 8 7 7 7 6 6 5 5 7 7 4 4 6 5 6 9 7 7 11 9 6 7 8 6 5 6 5 3 2 2 2 3 3 3 3 3 1 2 4 6 8 8 6 7 10 15 18 18 17 18 20 19 17 17 17 17 16 17 16 15 17 19 20 22 23 21 19 19 19
11 12 14 15 15 14 11 11 10 9 9 9 9 10 11 12 13 13 10 8 8 7 7 6 5 5 5 4 3 5 8 6 5 7 4 2 6 6 4 3 3 3 4 3 1 1 2 3 2 2 2 3 3 1 2 5 8 11 12 11 10 10 12 16 20 21 20 18 18 18 17 16 16 16 15 15 15 14 15 18 20 23 23 21 19 17 16
9 11 14 15 14 12 9 8 8 8 8 8 9 12 15 15 13 12 11 10 10 10 9 7 6 7 6 4 3 5 7 4 2 3 1 1 2 3 4 3 1 3 2 1 1 3 4 4 2 2 1 1 2 5 6 7 9 12 13 13 12 13 15 17 18 18 18 18 18 16 15 15 15 15 15 15 14 13 14 17 19 21 21 21 19 16 13
10 12 14 13 11 9 7 5 6 8 11 11 10 11 12 10 7 7 8 8 8 9 10 7 7 10 9 6 6 8 7 2 1 1 2 4 3 3 5 4 2 3 1 2 4 6 4 2 2 1 1 3 7 9 8 7 9 12 11 11 11 12 12 13 11 11 13 16 15 14 14 15 14 13 13 13 13 14 15 15 16 16 16 16 15 14 11
12 15 13 10 9 9 9 9 11 12 12 9 7 6 6 6 4 3 5 6 5 6 8 7 8 11 10 7 8 10 7 3 1 0 3 6 6 3 3 3 3 4 3 2 3 6 3 1 1 1 2 3 5 7 6 6 10 12 11 9 10 9 10 10 10 10 12 13 13 13 14 14 12 10 11 12 13 14 14 14 13 12 12 12 13 13 12
13 13 11 10 10 10 10 11 13 11 7 5 6 5 4 5 4 3 4 4 3 4 5 5 8 12 12 8 7 5 2 2 4 3 2 4 5 2 2 2 2 4 3 1 3 6 3 1 2 2 3 3 4 5 6 7 12 14 13 12 12 12 11 10 10 10 12 13 13 14 14 13 11 10 11 12 13 13 13 13 12 11 11 11 12 12 12
11 9 10 11 11 11 11 11 10 8 6 5 5 4 3 3 3 4 4 3 2 2 4 6 7 6 6 5 4 2 1 2 6 5 3 2 4 3 2 2 1 1 1 1 3 4 2 2 3 3 2 2 3 6 7 8 11 12 12 13 13 12 11 10 9 9 11 12 12 12 11 11 11 11 11 11 12 12 12 12 12 10 9 8 8 9 9
11 10 12 15 14 12 11 9 5 5 5 4 2 3 3 2 2 3 4 2 1 1 2 6 7 6 7 7 5 3 3 3 3 3 3 2 2 2 2 1 1 1 1 1 1 2 1 3 3 3 3 2 4 7 9 10 9 9 9 10 11 11 10 10 10 11 12 13 13 12 11 11 11 11 10 10 10 11 13 12 11 9 8 7 7 7 8
16 15 16 16 14 10 7 6 4 4 3 2 2 4 4 2 1 1 2 3 3 3 3 5 6 7 7 6 3 3 4 3 2 1 1 1 0 0 0 1 1 1 1 1 1 2 4 4 3 3 3 5 7 8 9 8 8 7 7 8 10 9 8 9 10 11 13 14 14 14 13 13 12 10 9 9 10 13 13 12 11 10 11 11 10 10 9
16 14 13 11 9 8 6 4 4 4 3 2 3 4 5 5 5 3 2 2 3 3 4 5 6 7 6 5 4 4 3 0 1 1 2 2 1 1 1 2 1 1 1 1 2 4 5 4 2 3 5 7 9 9 7 7 6 6 6 8 8 7 7 8 9 10 11 12 12 12 13 13 12 10 10 11 13 14 13 13 13 14 14 13 13 12 11
13 12 10 6 5 7 6 3 4 4 4 4 4 5 6 8 7 7 8 8 7 7 8 8 7 7 6 5 4 3 1 2 2 1 1 1 1 2 2 2 1 1 2 3 3 4 4 3 2 3 7 10 10 8 7 7 6 6 6 6 6 6 7 9 9 10 11 12 11 11 11 11 11 11 12 13 14 14 14 14 14 14 13 13 14 13 12
10 11 10 5 3 4 4 3 3 3 3 2 2 5 7 8 7 9 14 14 12 11 11 10 8 7 6 7 6 4 2 1 1 1 1 0 2 3 2 1 1 2 3 4 4 4 4 2 2 4 8 10 9 8 8 8 9 9 10 10 10 10 10 10 10 11 13 13 12 12 12 12 12 12 13 13 14 14 14 14 13 13 13 13 13 13 13
11 11 8 5 3 3 3 3 3 5 8 7 4 7 12 14 13 14 16 15 13 12 11 10 7 4 2 3 4 3 4 3 1 3 2 1 2 1 2 1 2 3 3 4 4 4 4 3 5 8 9 8 8 10 11 12 13 14 14 14 15 15 15 15 15 14 14 14 13 13 13 12 12 13 13 14 15 14 14 14 14 14 14 14 13 13 13
11 9 6 5 2 2 4 7 7 9 10 9 6 7 13 14 13 15 18 16 13 11 10 9 7 4 1 1 2 3 3 4 4 5 4 2 1 1 2 3 4 4 3 4 5 4 3 4 6 8 9 8 9 11 13 13 13 13 14 15 15 16 16 17 17 17 16 15 15 14 13 12 12 13 14 14 14 14 13 14 14 14 14 14 14 14 14
9 7 7 6 2 3 6 11 10 9 14 17 15 12 14 13 11 15 19 16 11 8 6 5 5 4 3 3 3 4 4 5 4 4 4 4 3 3 3 4 6 5 4 3 3 3 4 5 5 7 8 9 8 9 11 12 12 12 14 16 16 16 16 17 16 16 16 16 15 14 14 13 12 13 13 14 14 14 13 13 14 14 14 14 14 14 14
7 7 8 8 4 4 10 14 10 9 14 18 17 17 17 16 17 21 22 17 11 7 4 2 2 3 4 4 4 4 4 5 4 4 5 5 5 4 4 5 6 5 4 4 4 4 5 5 6 9 11 10 8 8 10 11 11 13 15 16 15 15 16 16 15 15 15 14 14 14 13 13 12 12 13 13 14 13 13 13 13 13 12 11 11 12 12
9 8 9 11 11 11 13 14 10 9 12 14 15 18 18 18 20 23 23 19 14 10 7 5 5 4 4 5 5 3 3 4 3 5 6 5 3 3 4 6 5 3 4 7 9 8 7 6 8 10 11 12 13 13 13 12 12 12 13 14 14 14 15 15 14 15 14 13 13 13 13 12 12 12 13 13 12 12 13 13 12 11 10 9 9 9 9
11 10 9 13 16 16 15 15 14 15 16 16 18 19 18 17 20 25 26 21 17 13 10 9 8 6 5 4 3 2 3 3 5 6 6 5 3 4 5 7 6 6 7 9 11 10 11 13 15 15 16 17 19 20 21 21 20 17 14 13 13 14 14 14 14 14 13 13 13 12 12 12 12 12 13 13 12 12 12 11 10 10 10 10 9 8 7
Wind_Direction
315 315 315 314 309 308 310 312 316 321 324 328 331 329 314 294 287 283 276 283 291 276 256 258 254 252 260 262 264 265 266 265 265 266 263 262 264 261 256 256 257 259 260 259 256 255 251 242 237 232 223 220 217 216 218 216 212 210 208 203 200 208 225 221 222 238 240 224 209 204 209 215 222 221 214 219 225 224 225 224 215 223 229 222 222 236 237
312 310 310 309 306 306 307 309 314 318 320 322 322 320 309 298 294 288 280 274 270 264 256 258 255 256 260 258 259 261 261 261 263 262 258 257 258 259 259 254 252 253 256 260 264 263 258 250 244 242 241 226 208 211 221 220 214 208 203 198 191 196 218 219 211 220 232 229 215 203 204 210 217 226 221 218 222 227 233 238 228 225 234 232 229 229 224
313 310 308 306 304 304 304 307 311 313 315 316 311 305 302 299 290 284 287 276 253 246 250 259 263 262 266 271 276 277 272 275 284 283 271 263 258 257 260 258 256 255 252 251 256 259 259 259 255 253 260 248 212 211 217 212 209 214 211 203 197 195 207 211 211 212 209 217 219 198 197 210 213 221 226 222 220 222 227 235 236 228 222 225 235 244 223
313 311 308 305 303 302 303 304 305 307 310 308 304 297 294 297 294 290 296 285 262 253 251 256 270 291 301 306 305 304 298 298 308 311 301 288 279 272 268 263 259 255 253 251 250 253 254 258 263 260 262 261 230 221 221 210 197 183 29 235 212 207 207 209 218 227 218 217 227 208 196 210 216 214 221 225 223 221 221 226 233 234 223 218 230 249 254
308 307 306 305 303 302 302 302 301 303 303 299 297 291 282 281 283 289 305 305 295 285 266 260 282 326 318 323 311 302 300 303 309 310 314 319 314 306 304 293 270 252 257 260 252 250 249 247 255 260 263 270 252 232 230 222 183 132 52 288 229 218 216 210 212 226 233 229 230 223 209 211 220 217 216 223 228 227 224 224 228 230 233 233 221 222 246
305 304 302 301 302 301 299 301 300 300 297 291 288 283 275 273 278 288 302 300 286 293 290 290 299 297 290 292 294 293 292 293 299 304 311 319 326 330 324 326 323 307 305 306 291 280 263 247 250 255 254 264 263 242 233 225 174 152 218 237 229 230 226 216 210 216 227 232 233 233 225 217 222 225 221 219 222 229 230 228 227 226 232 241 224 204 224
304 303 300 297 297 296 296 298 298 298 296 286 278 272 271 276 281 288 297 296 282 282 286 289 290 284 280 273 261 272 281 281 282 295 307 306 320 334 316 320 336 339 338 334 335 353 337 291 285 290 281 272 266 250 235 226 196 189 219 225 226 245 236 225 222 216 219 225 232 239 241 232 225 228 228 221 217 224 232 234 231 227 231 244 244 225 216
302 300 298 295 291 290 290 291 292 293 293 285 273 264 265 273 285 297 306 306 295 284 279 281 282 280 279 272 257 256 265 273 275 282 294 293 303 322 315 315 324 331 333 324 327 356 350 322 314 319 323 315 292 272 251 239 218 210 221 224 217 226 229 224 228 230 221 218 222 231 240 243 237 232 232 231 225 221 224 233 236 232 230 236 243 245 228
302 298 295 292 289 287 286 286 287 287 286 282 274 267 266 272 282 293 300 299 292 285 281 280 279 279 277 275 275 269 264 266 269 270 274 282 289 300 312 318 319 317 320 321 327 338 332 319 316 315 313 305 293 291 284 266 241 215 217 225 214 213 227 225 223 234 233 222 219 222 228 240 245 238 231 230 231 230 225 222 225 232 237 234 236 243 240
304 300 296 293 291 287 284 281 282 282 278 271 269 271 275 280 282 283 285 284 285 285 284 280 276 277 279 277 279 280 278 275 273 272 270 273 280 291 308 318 315 307 311 319 326 327 320 314 312 308 300 292 286 285 285 285 278 239 219 220 217 214 222 227 223 227 231 230 229 222 220 231 238 237 236 232 230 238 239 225 214 219 232 242 246 248 246
303 301 298 295 290 286 282 278 277 277 273 267 265 270 277 281 284 285 286 282 279 280 279 278 280 287 294 292 286 282 285 284 278 277 280 277 279 286 296 301 296 292 302 311 315 318 314 310 308 303 298 296 292 284 282 288 300 296 247 214 214 218 217 219 227 227 223 229 236 230 222 228 228 227 238 243 241 239 241 237 225 218 219 220 223 234 242
303 301 299 295 290 285 280 277 275 273 272 273 272 270 271 274 275 274 270 270 278 280 276 276 283 293 296 294 290 286 285 287 288 285 279 281 284 284 285 284 278 280 295 304 311 318 319 318 320 313 300 296 296 293 285 280 289 307 315 307 229 229 222 217 224 228 222 223 231 231 224 226 237 238 236 243 249 252 253 249 241 237 237 229 222 224 227
303 300 298 294 291 286 280 277 275 271 272 275 273 270 271 272 267 263 264 273 276 274 278 284 286 289 293 292 293 291 282 278 285 285 276 272 276 277 273 266 264 276 290 303 315 322 326 327 327 323 310 298 293 292 284 274 274 288 292 277 263 254 237 220 214 218 222 218 219 228 235 238 253 257 249 243 247 255 262 260 252 252 257 258 266 283 276
304 301 299 295 292 288 283 280 277 271 270 271 270 270 272 269 262 256 259 265 267 272 281 290 287 287 294 298 298 299 292 282 283 287 282 278 277 275 271 265 265 272 278 298 318 319 324 339 331 323 322 307 285 281 283 277 272 273 271 260 256 267 269 245 218 208 214 224 220 226 250 250 241 243 243 242 248 251 257 262 260 261 268 283 315 315 314
309 308 304 297 292 289 286 282 278 274 270 270 270 271 272 271 268 263 257 253 270 283 274 268 278 292 308 306 296 294 290 285 289 290 285 286 288 284 278 274 272 269 265 272 307 313 312 318 313 312 313 297 273 273 281 280 270 264 263 261 258 260 272 279 252 210 200 221 225 222 231 230 226 230 225 215 241 309 24 305 279 281 297 316 324 308 317
313 312 306 298 293 291 288 283 279 274 271 270 270 270 272 271 267 264 260 252 255 277 267 269 288 297 304 294 289 292 297 299 318 308 286 289 302 299 294 294 288 274 256 238 237 273 290 283 276 283 291 287 285 279 270 271 278 273 262 253 254 261 265 273 267 229 203 215 221 222 228 218 212 234 229 210 204 87 60 287 266 293 338 348 349 337 336
314 312 306 299 295 293 291 286 280 275 271 272 274 275 275 270 263 264 264 254 245 261 269 279 291 293 291 288 288 298 308 303 306 299 288 299 314 308 306 309 299 279 257 239 228 235 242 256 264 263 264 275 288 284 272 261 263 274 271 247 235 246 251 241 244 237 223 226 227 229 236 203 180 225 222 194 170 107 136 240 241 21 16 18 15 358 354
314 313 306 299 297 296 293 285 278 273 272 275 279 280 278 272 265 265 261 251 246 264 271 274 278 277 281 294 293 297 306 298 282 282 292 297 310 321 321 315 298 277 260 243 226 222 226 234 249 256 260 264 270 279 282 269 250 250 268 262 237 240 244 234 236 234 223 225 234 243 240 173 168 204 185 144 142 177 216 235 249 26 5 14 10 351 358
317 317 310 303 300 297 293 285 276 272 273 278 280 278 277 272 266 264 258 247 243 258 268 272 276 275 279 288 286 286 296 294 287 286 297 297 326 344 320 302 286 280 270 247 225 220 225 223 226 249 260 251 254 273 279 276 266 249 253 266 256 242 237 234 234 232 224 223 229 244 247 162 157 210 183 151 186 225 221 208 53 30 3 6 4 359 9
321 320 315 309 304 300 296 286 277 272 273 279 280 277 278 275 266 262 260 251 249 261 270 273 274 275 277 280 279 279 286 287 285 282 279 292 323 342 325 301 304 316 283 247 230 218 221 226 220 228 247 244 258 293 278 278 282 278 278 287 276 249 237 235 233 227 228 229 221 230 242 163 146 194 212 180 189 247 37 49 48 35 11 2 9 17 20
325 323 320 316 308 304 300 289 281 279 278 280 282 281 281 280 271 267 264 254 250 262 276 280 277 275 273 274 274 274 275 277 280 283 278 281 296 314 308 287 311 324 302 258 246 226 224 249 233 223 253 261 264 312 299 298 290 283 286 293 290 276 252 240 242 231 227 233 223 236 280 181 156 173 222 182 102 47 45 44 38 38 26 18 24 28 25
330 326 322 319 314 308 304 295 287 285 284 283 283 282 282 282 277 275 272 258 250 257 269 276 280 278 274 272 271 268 268 272 275 275 277 279 279 278 278 280 280 279 292 304 286 268 17 324 272 271 281 267 255 264 278 299 288 288 294 281 282 310 322 304 278 256 230 236 197 67 5 151 149 144 147 119 86 56 51 49 40 40 37 34 36 33 30
330 327 324 321 316 310 306 300 295 291 289 287 283 279 281 284 280 278 281 275 267 269 274 276 276 275 272 271 269 264 262 264 264 261 262 268 270 269 273 276 276 274 285 298 301 305 6 21 312 327 296 269 292 275 258 248 264 286 300 274 272 316 337 345 317 278 155 80 75 103 83 95 123 118 106 104 81 62 63 65 55 53 53 50 48 43 41
331 329 327 323 317 312 307 304 302 299 294 288 284 282 282 284 283 279 280 278 273 276 281 275 265 263 269 272 270 268 263 257 254 254 250 248 253 259 264 271 281 277 282 305 314 293 276 261 302 313 284 301 355 288 258 255 265 310 323 298 286 333 348 347 328 303 263 90 71 89 78 59 62 95 112 101 83 72 75 79 76 72 68 61 56 54 55
336 332 328 324 320 315 309 307 305 302 298 292 288 286 283 282 283 280 274 268 266 271 284 283 269 268 278 278 266 262 264 255 246 244 239 235 239 243 249 266 283 267 276 304 311 295 285 286 266 267 279 296 332 284 274 293 327 346 332 300 294 342 344 339 339 322 289 130 88 88 81 62 48 54 72 89 96 93 85 83 82 78 71 64 59 59 60
337 334 329 325 322 316 310 309 305 301 299 297 291 288 286 284 285 282 274 271 273 268 261 275 281 283 293 290 274 266 269 260 242 236 233 232 236 240 246 257 264 264 272 286 290 283 287 293 269 261 277 279 301 305 302 312 310 291 275 283 308 323 317 315 324 312 278 148 106 93 87 73 58 56 58 68 86 93 89 84 80 76 73 68 62 60 59
334 333 331 327 325 322 316 313 310 306 304 302 297 291 287 285 283 280 273 269 273 270 256 273 290 298 302 295 285 278 273 263 249 238 233 232 234 236 240 244 249 256 264 272 272 266 261 273 270 256 262 277 296 293 274 259 288 276 257 290 327 321 297 306 315 281 224 186 163 106 93 89 76 70 68 69 75 81 80 78 75 72 72 72 67 61 56
333 332 332 329 327 324 320 317 314 310 307 307 301 292 289 288 286 281 275 267 263 264 273 286 292 297 301 296 288 277 262 251 246 242 236 232 229 230 232 234 238 244 248 252 259 258 242 255 267 257 268 292 292 275 257 242 252 253 246 279 316 304 290 308 313 274 263 264 267 85 96 105 99 89 84 78 75 77 77 75 74 71 66 66 65 60 55
333 330 328 326 323 319 317 316 311 307 307 309 306 299 296 294 289 282 276 269 261 260 272 286 289 289 295 299 296 286 269 252 242 238 236 232 228 226 228 230 232 236 240 243 248 255 249 253 260 260 266 297 288 271 265 248 243 235 228 257 283 293 294 300 307 297 274 232 156 109 105 111 109 98 90 82 78 78 75 72 71 69 65 63 62 59 58
333 329 325 322 317 313 312 310 307 305 307 308 307 304 301 299 300 301 295 286 275 266 271 285 292 293 297 297 292 284 274 261 246 235 229 229 228 225 224 227 229 231 236 239 243 253 259 256 261 259 246 229 245 278 263 245 257 246 202 248 290 307 313 316 313 304 251 149 135 119 111 110 106 96 88 83 82 81 79 77 73 69 65 64 62 58 57
332 330 325 319 316 314 313 311 308 305 306 303 298 294 290 289 304 313 310 309 302 290 285 287 289 294 297 293 284 287 290 280 263 243 226 220 222 222 220 222 223 223 229 236 238 242 249 248 252 255 229 207 219 267 271 264 278 274 218 9 344 330 335 338 324 304 113 112 113 109 105 104 101 91 83 78 81 86 86 83 77 71 66 62 58 55 52
333 332 328 324 322 319 317 317 311 303 295 284 273 269 268 272 283 289 294 301 298 288 287 292 292 294 299 297 300 310 310 292 270 253 228 211 211 215 214 215 219 220 226 236 239 238 248 252 254 262 243 207 215 260 267 255 259 252 65 45 30 3 1 7 34 128 118 114 114 107 96 89 87 88 86 83 86 91 92 86 80 78 74 66 57 52 48
332 331 327 326 325 322 320 319 313 303 291 277 272 276 280 282 285 285 287 292 289 280 275 280 285 285 289 297 307 316 318 298 266 250 223 201 200 206 204 206 215 219 219 226 233 235 245 251 255 262 255 220 217 250 261 251 234 112 98 84 65 41 38 49 78 107 106 102 103 101 96 93 91 91 93 92 89 90 92 90 86 84 80 69 57 48 40
324 321 320 321 322 320 318 313 308 304 296 285 282 288 292 294 301 301 284 269 272 269 258 256 267 285 294 299 307 320 328 322 270 249 221 191 193 202 197 195 204 210 207 213 224 232 227 231 262 277 273 245 229 240 257 272 121 118 108 94 69 53 59 62 65 76 90 96 97 98 102 103 99 92 89 89 87 86 90 92 89 85 79 69 58 49 38
314 312 315 318 318 316 312 303 295 292 289 287 288 286 282 288 303 308 294 265 263 268 258 248 249 277 302 309 315 327 334 323 255 249 241 188 191 208 204 193 202 202 192 206 226 245 244 238 254 274 272 251 238 240 255 67 96 106 100 81 50 39 55 60 57 61 80 99 105 107 107 103 98 94 91 91 89 86 87 87 84 81 78 69 59 51 42
314 315 317 320 319 314 307 298 288 277 277 285 292 294 294 297 301 299 288 266 261 270 280 282 277 282 303 314 307 311 323 319 260 256 271 187 203 224 221 199 193 155 139 157 213 279 255 240 250 269 245 237 251 255 108 104 97 94 90 81 66 58 67 78 79 77 78 84 93 101 105 102 98 97 96 95 93 88 85 84 79 76 76 71 61 53 47
323 321 322 325 321 310 298 289 278 275 286 295 292 291 294 296 294 288 276 263 254 251 257 275 283 273 268 264 264 297 317 322 258 259 292 236 234 232 217 212 154 111 125 160 237 240 233 224 235 281 256 190 74 67 87 100 97 91 87 85 87 86 82 83 89 91 88 80 75 80 89 92 92 94 94 94 93 88 82 78 73 71 73 73 67 59 54
341 330 322 317 308 299 299 296 285 289 301 302 293 287 287 284 276 265 252 244 242 237 232 240 263 263 258 249 254 277 300 317 179 207 213 215 218 200 200 207 168 135 177 253 223 211 214 197 191 262 19 79 72 67 76 89 94 95 93 88 91 93 84 75 76 81 82 77 70 68 74 78 81 85 86 85 84 78 73 71 70 68 69 71 67 61 59
351 339 329 316 300 304 321 323 312 310 309 296 277 270 263 250 249 245 215 202 220 232 223 225 252 258 254 255 266 276 287 294 283 249 181 201 213 189 170 190 175 170 206 259 188 175 166 106 136 88 38 54 64 65 77 94 93 94 97 95 92 89 83 82 83 78 78 83 83 79 76 75 74 79 83 83 82 80 76 75 75 73 73 76 77 76 78
349 338 330 316 302 303 314 310 304 308 309 278 254 254 240 220 226 235 202 192 218 235 226 240 255 246 235 239 262 275 265 236 261 278 188 203 230 222 155 166 194 201 218 237 161 166 162 102 101 79 40 34 51 59 69 84 88 89 93 95 94 89 83 83 85 84 85 90 89 85 82 79 75 77 82 84 84 83 82 81 79 77 77 80 79 76 75
338 330 329 324 316 317 321 313 298 288 282 266 253 254 242 217 226 250 252 248 249 229 244 275 286 270 254 272 295 321 27 227 240 242 228 242 271 263 189 161 179 237 228 115 146 174 178 74 82 80 54 56 78 74 72 75 81 86 89 86 81 78 77 77 78 83 90 92 87 82 82 83 78 74 73 75 79 82 84 82 79 77 77 76 72 69 67
351 352 346 342 342 338 327 316 297 273 272 273 269 272 274 262 246 259 272 294 358 19 299 302 313 322 325 326 320 294 289 297 265 231 222 236 259 244 207 148 72 23 47 97 146 173 112 70 70 71 68 71 80 85 90 92 90 90 93 89 83 82 84 86 86 88 93 94 90 85 84 84 79 71 65 66 75 85 87 82 76 75 77 73 70 77 80
8 1 345 339 341 337 319 310 319 315 297 298 309 297 299 333 8 314 309 331 347 344 316 301 307 315 320 326 318 261 260 293 328 281 276 325 352 187 120 70 54 50 74 111 77 60 66 68 60 53 62 73 79 86 95 104 106 101 96 95 96 97 101 103 103 101 100 96 92 89 87 85 81 78 75 76 80 83 83 80 79 82 82 74 69 73 76
5 352 334 325 326 327 324 320 326 326 317 323 329 322 331 350 354 349 353 357 341 315 296 290 306 323 324 311 293 273 259 296 25 323 301 317 328 356 59 70 57 356 32 75 62 52 58 64 54 23 36 60 77 89 97 105 114 115 107 101 100 102 107 111 112 110 105 98 91 89 88 88 87 85 83 82 81 81 80 80 82 83 81 76 73 70 69
349 337 333 325 321 336 343 327 315 327 333 329 326 323 329 340 346 344 343 339 327 322 328 326 319 319 316 299 280 259 203 100 65 27 302 301 21 29 41 63 66 29 54 68 63 59 68 73 45 12 26 44 65 87 99 103 108 116 119 119 119 117 118 121 120 113 108 104 102 100 97 96 95 92 87 84 85 85 83 82 82 82 81 78 75 71 68
330 333 342 336 314 339 348 328 321 332 323 311 323 317 314 317 311 306 313 323 329 336 344 344 334 329 342 356 0 351 308 271 108 119 183 162 60 30 352 333 25 59 70 70 64 72 94 107 58 43 51 58 71 86 94 100 105 109 113 115 115 111 110 112 113 109 106 105 105 105 103 100 97 93 91 89 88 86 83 82 80 80 80 78 74 72 71
334 339 345 337 312 322 333 326 294 275 276 283 300 309 313 320 318 308 311 325 336 336 336 337 333 325 334 3 4 340 296 288 6 59 52 64 75 30 331 358 47 46 58 77 86 98 109 91 63 68 77 84 92 99 104 109 112 113 113 112 109 107 104 100 97 99 100 99 97 97 98 99 97 93 92 92 89 84 82 80 77 76 76 75 73 74 73
333 336 342 347 337 299 313 318 307 303 322 351 9 332 322 324 320 312 316 325 331 331 336 343 341 337 329 330 354 356 337 338 17 37 32 42 84 44 17 51 54 39 49 86 103 109 97 74 74 84 91 92 93 98 102 104 104 105 107 105 101 100 101 99 96 95 95 96 96 95 94 95 95 92 91 90 86 80 77 77 74 73 73 73 71 71 70
337 339 339 340 297 245 309 328 327 340 10 30 43 26 357 343 331 329 334 335 331 330 334 331 327 344 5 1 1 18 17 9 18 31 27 32 45 35 30 54 58 48 47 73 93 93 81 75 72 67 62 63 78 95 99 96 94 94 95 94 91 90 91 92 93 93 93 95 100 102 100 98 97 94 91 89 85 81 79 77 73 72 73 73 73 71 69
355 350 342 346 343 323 340 351 357 2 8 19 32 30 12 357 349 351 354 352 349 350 352 339 352 22 26 15 22 41 29 12 16 35 34 33 37 37 39 52 57 58 64 78 84 84 75 58 43 42 46 56 76 96 97 93 90 88 88 89 89 89 88 88 88 89 91 93 97 100 99 97 95 92 91 90 86 83 80 76 71 68 69 71 74 73 69
7 0 352 3 11 7 360 2 10 9 4 11 26 29 17 3 358 2 4 5 9 19 27 29 30 37 37 30 31 21 338 334 10 44 44 34 32 47 58 60 59 69 79 76 76 79 73 50 34 34 37 44 54 64 68 69 71 76 81 82 82 83 86 87 86 86 87 89 92 92 90 88 87 87 87 85 80 78 78 74 66 61 63 67 70 72 70
5 354 356 10 13 10 8 8 7 5 7 15 26 29 21 9 9 16 22 27 35 41 38 31 35 47 43 24 10 344 336 8 36 44 40 34 26 30 51 69 86 98 88 73 64 58 45 30 21 22 30 38 43 43 43 45 50 58 67 71 71 72 75 79 83 86 88 89 90 90 88 87 85 83 80 75 71 72 76 72 60 59 67 67 63 65 71